Weather History for Fort Rucker / Ozark, AL

Change the Weather History Date:

Monday, October 29, 2012

  Actual Average (KDHN) Record (KDHN)
Temperature  
Mean Temperature 52 °F 64 °F  
Max Temperature 61 °F 76 °F 87 °F (1940)
Min Temperature 42 °F 51 °F 32 °F (1952)
Degree Days  
Heating Degree Days 14 4  
Month to date heating degree days 48  
Since 1 July heating degree days 50  
Cooling Degree Days 0 3  
Month to date cooling degree days 131  
Year to date cooling degree days 2359  
Growing Degree Days 2 (Base 50)    
Moisture  
Dew Point 32 °F    
Average Humidity 52    
Maximum Humidity 74    
Minimum Humidity 30    
Precipitation  
Precipitation 0.00 in 0.12 in 3.54 in (1959)
Month to date precipitation 3.17  
Year to date precipitation 45.15  
Sea Level Pressure  
Sea Level Pressure 29.94 in    
Wind  
Wind Speed 10 mph (NNW)    
Max Wind Speed 18 mph    
Max Gust Speed 26 mph    
Visibility 10 miles    
Events      
T = Trace of Precipitation, MM = Missing Value Source: NWS Daily Summary

Daily Weather History Graph

Daily Weather History Graph

Search for Another Location

Airport:

Trip Planner

Search our weather history database for the weather conditions in past years. The results will help you decide how hot, cold, wet, or windy it might be!

Date:

Astronomy

Oct. 29, 2012 Rise Set
Actual Time 6:56 AM CDT 5:56 PM CDT
Civil Twilight 6:31 AM CDT 6:21 PM CDT
Nautical Twilight 6:03 AM CDT 6:49 PM CDT
Astronomical Twilight 5:34 AM CDT 7:18 PM CDT
Moon 5:50 PM CDT (10/29) 6:44 AM CDT (10/29)
Length of Visible Light 11h 49m
Length of Day
10h 59m
Full, 100% of the Moon is Illuminated
Oct 29
Full
Oct 29
Full
Nov 6
Last Quarter
Nov 13
New
Nov 20
First Quarter

Hourly Weather History & Observations

Time (CDT) Temp. Windchill Dew Point Humidity Pressure Visibility Wind Dir Wind Speed Gust Speed Precip Events Conditions
12:53 AM 46.9 °F - 37.0 °F 68% 29.96 in 10.0 mi NW 6.9 mph - N/A   Clear
1:53 AM 45.0 °F 39.7 °F 37.0 °F 74% 29.96 in 10.0 mi NW 10.4 mph - N/A   Clear
2:53 AM 44.1 °F 40.1 °F 36.0 °F 73% 29.96 in 10.0 mi NW 6.9 mph - N/A   Clear
3:53 AM 43.0 °F 38.8 °F 35.1 °F 74% 29.96 in 10.0 mi NNW 6.9 mph - N/A   Clear
4:53 AM 43.0 °F 37.2 °F 35.1 °F 74% 29.96 in 10.0 mi NNW 10.4 mph 17.3 mph N/A   Clear
5:53 AM 43.0 °F 37.2 °F 35.1 °F 74% 29.98 in 10.0 mi NNW 10.4 mph - N/A   Clear
6:53 AM 42.1 °F 37.1 °F 34.0 °F 73% 29.98 in 10.0 mi NNW 8.1 mph - N/A   Clear
7:53 AM 44.1 °F 38.6 °F 34.0 °F 68% 30.00 in 10.0 mi NNW 10.4 mph - N/A   Clear
8:53 AM 48.0 °F - 34.0 °F 58% 30.01 in 10.0 mi NNW 10.4 mph 19.6 mph N/A   Clear
9:53 AM 52.0 °F - 33.1 °F 49% 30.01 in 10.0 mi NNW 15.0 mph 26.5 mph N/A   Partly Cloudy
10:53 AM 55.9 °F - 30.9 °F 39% 29.98 in 10.0 mi NNW 13.8 mph 17.3 mph N/A   Partly Cloudy
11:53 AM 57.9 °F - 30.0 °F 35% 29.96 in 10.0 mi NNW 15.0 mph 25.3 mph N/A   Partly Cloudy
12:53 PM 59.0 °F - 28.9 °F 32% 29.93 in 10.0 mi NW 15.0 mph 26.5 mph N/A   Partly Cloudy
1:53 PM 60.1 °F - 30.0 °F 32% 29.91 in 10.0 mi North 12.7 mph 23.0 mph N/A   Partly Cloudy
2:53 PM 61.0 °F - 30.0 °F 31% 29.89 in 10.0 mi NW 16.1 mph 24.2 mph N/A   Clear
3:24 PM 60.8 °F - 30.2 °F 31% 29.88 in 10.0 mi NNW 12.7 mph 19.6 mph N/A   Partly Cloudy
3:53 PM 60.1 °F - 28.0 °F 30% 29.88 in 10.0 mi NNW 18.4 mph 26.5 mph N/A   Partly Cloudy
4:53 PM 57.9 °F - 30.0 °F 35% 29.88 in 10.0 mi NNW 11.5 mph 26.5 mph N/A   Partly Cloudy
5:53 PM 54.0 °F - 30.9 °F 41% 29.88 in 10.0 mi NW 6.9 mph - N/A   Clear
6:53 PM 52.0 °F - 30.9 °F 45% 29.90 in 10.0 mi NW 8.1 mph - N/A   Clear
7:53 PM 50.0 °F - 30.9 °F 48% 29.91 in 10.0 mi NW 8.1 mph - N/A   Clear
8:53 PM 50.0 °F - 32.0 °F 50% 29.92 in 10.0 mi Variable 6.9 mph - N/A   Clear
9:53 PM 46.9 °F - 32.0 °F 56% 29.93 in 10.0 mi NW 8.1 mph - N/A   Clear
10:53 PM 46.0 °F 41.9 °F 30.9 °F 56% 29.93 in 10.0 mi NW 8.1 mph - N/A   Clear
11:53 PM 46.0 °F 41.4 °F 28.9 °F 51% 29.93 in 10.0 mi NW 9.2 mph - N/A   Clear